AAL101 EGLL-KJFK

Flight info

Callsign AAL101
Flight time N/A
Altitude 34000
Route ULTIB T420 TNT UL28 PENIL M144 BAGSO DCT RINUS DCT MALOT/M083F360 DCT 54N020W 54N030W 54N040W 53N050W DCT RIKAL/N0471F380 N572A TOPPS DCT ENE PARCH4
Aircraft B77W/H-SDE1E2E3FGHIJ2J3J4J5M1RWXY/LB1D1

Departure

Time N/A
Airport London Heathrow Airport (EGLL)

Arrival

Time 2026-05-06 02:30
Airport John F. Kennedy International Airport (KJFK)
Time Latitude Longitude Altitude Speed Heading
2026-05-06 01:43 43.52315 -70.47491 33844 ft 440 kts 232°
2026-05-06 01:43 43.48373 -70.53143 33855 ft 441 kts 232°
2026-05-06 01:44 43.44839 -70.58198 33852 ft 441 kts 232°
2026-05-06 01:44 43.41468 -70.62026 33847 ft 455 kts 215°
2026-05-06 01:44 43.38482 -70.63622 33867 ft 464 kts 204°
2026-05-06 01:45 43.32271 -70.66398 33864 ft 474 kts 206°
2026-05-06 01:45 43.26057 -70.69475 33849 ft 474 kts 207°
2026-05-06 01:46 43.19856 -70.72551 33830 ft 474 kts 207°
2026-05-06 01:46 43.13656 -70.75590 33835 ft 473 kts 206°
2026-05-06 01:47 43.07460 -70.78610 33842 ft 473 kts 206°
2026-05-06 01:47 43.01251 -70.81629 33837 ft 473 kts 206°
2026-05-06 01:48 42.95037 -70.84647 33833 ft 475 kts 206°
2026-05-06 01:48 42.88841 -70.87648 33829 ft 476 kts 205°
2026-05-06 01:49 42.82595 -70.90667 33855 ft 477 kts 205°
2026-05-06 01:49 42.76325 -70.93693 33859 ft 478 kts 205°
2026-05-06 01:50 42.70040 -70.96721 33885 ft 480 kts 205°
2026-05-06 01:50 42.63734 -70.99755 33879 ft 481 kts 205°
2026-05-06 01:51 42.57416 -71.02790 33887 ft 482 kts 205°
2026-05-06 01:51 42.51173 -71.05773 33867 ft 468 kts 205°
2026-05-06 01:52 42.45054 -71.08695 33890 ft 466 kts 205°
2026-05-06 01:52 42.38926 -71.11624 33902 ft 468 kts 205°
2026-05-06 01:53 42.32766 -71.14560 33890 ft 470 kts 205°
2026-05-06 01:53 42.26584 -71.17497 33574 ft 471 kts 205°
2026-05-06 01:54 42.23500 -71.18959 33175 ft 468 kts 205°
2026-05-06 01:54 42.20445 -71.20405 32802 ft 464 kts 204°
2026-05-06 01:54 42.17393 -71.21849 32440 ft 464 kts 204°
2026-05-06 01:54 42.14344 -71.23291 32074 ft 464 kts 204°
2026-05-06 01:55 42.11295 -71.24731 31719 ft 464 kts 204°
2026-05-06 01:55 42.08247 -71.26170 31371 ft 464 kts 204°
2026-05-06 01:55 42.05197 -71.27609 31018 ft 465 kts 204°
2026-05-06 01:55 42.02182 -71.29028 30703 ft 465 kts 204°
2026-05-06 01:56 41.99126 -71.30466 30362 ft 465 kts 203°
2026-05-06 01:56 41.96070 -71.31902 30070 ft 465 kts 203°
2026-05-06 01:56 41.93010 -71.33339 29737 ft 468 kts 203°
2026-05-06 01:56 41.89927 -71.34785 29414 ft 471 kts 203°
2026-05-06 01:57 41.86831 -71.36236 29084 ft 471 kts 203°
2026-05-06 01:57 41.83749 -71.37678 28744 ft 467 kts 203°
2026-05-06 01:57 41.80689 -71.39109 28441 ft 464 kts 203°
2026-05-06 01:57 41.77646 -71.40530 28121 ft 461 kts 203°
2026-05-06 01:58 41.74626 -71.41939 27797 ft 458 kts 203°
2026-05-06 01:58 41.71727 -71.43563 27451 ft 447 kts 213°
2026-05-06 01:58 41.69320 -71.46041 27131 ft 431 kts 226°
2026-05-06 01:58 41.67097 -71.48792 26816 ft 438 kts 225°
2026-05-06 01:59 41.64804 -71.51486 26414 ft 440 kts 224°
2026-05-06 01:59 41.62473 -71.54128 26006 ft 437 kts 223°
2026-05-06 01:59 41.60147 -71.56719 25609 ft 434 kts 223°
2026-05-06 01:59 41.57831 -71.59285 25220 ft 431 kts 223°
2026-05-06 02:00 41.55530 -71.61832 24830 ft 428 kts 223°
2026-05-06 02:00 41.53251 -71.64358 24462 ft 425 kts 223°
2026-05-06 02:00 41.50988 -71.66867 24115 ft 422 kts 222°
2026-05-06 02:00 41.48734 -71.69365 23984 ft 422 kts 222°
2026-05-06 02:01 41.46479 -71.71864 23992 ft 421 kts 222°
2026-05-06 02:01 41.44232 -71.74353 23985 ft 420 kts 222°
2026-05-06 02:01 41.41987 -71.76839 23987 ft 420 kts 222°
2026-05-06 02:01 41.39773 -71.79285 23971 ft 405 kts 222°
2026-05-06 02:02 41.37646 -71.81631 23968 ft 389 kts 222°
2026-05-06 02:02 41.35591 -71.83900 23978 ft 381 kts 222°
2026-05-06 02:02 41.33556 -71.86148 23978 ft 380 kts 222°
2026-05-06 02:02 41.31524 -71.88391 23980 ft 379 kts 222°
2026-05-06 02:03 41.29495 -71.90624 23983 ft 377 kts 222°
2026-05-06 02:03 41.27519 -71.92795 23741 ft 371 kts 222°
2026-05-06 02:03 41.25536 -71.94972 23297 ft 368 kts 222°
2026-05-06 02:03 41.23569 -71.97130 22842 ft 365 kts 222°
2026-05-06 02:04 41.21621 -71.99267 22386 ft 361 kts 222°
2026-05-06 02:04 41.19690 -72.01385 21945 ft 358 kts 222°
2026-05-06 02:04 41.17780 -72.03478 21534 ft 355 kts 222°
2026-05-06 02:04 41.15879 -72.05561 21103 ft 352 kts 221°
2026-05-06 02:05 41.14001 -72.07615 20681 ft 349 kts 221°
2026-05-06 02:05 41.12134 -72.09655 20262 ft 346 kts 221°
2026-05-06 02:05 41.10406 -72.11784 19816 ft 334 kts 233°
2026-05-06 02:05 41.09281 -72.14446 19403 ft 330 kts 249°
2026-05-06 02:06 41.08574 -72.17330 18923 ft 328 kts 252°
2026-05-06 02:06 41.07880 -72.20214 18468 ft 328 kts 251°
2026-05-06 02:06 41.07179 -72.23088 17959 ft 328 kts 251°
2026-05-06 02:06 41.06474 -72.25956 17449 ft 327 kts 251°
2026-05-06 02:07 41.05768 -72.28818 16927 ft 327 kts 251°
2026-05-06 02:07 41.05058 -72.31691 16352 ft 329 kts 251°
2026-05-06 02:07 41.04342 -72.34572 15766 ft 330 kts 251°
2026-05-06 02:07 41.03622 -72.37467 15215 ft 332 kts 251°
2026-05-06 02:08 41.02909 -72.40334 14661 ft 333 kts 251°
2026-05-06 02:08 41.02181 -72.43253 14108 ft 334 kts 251°
2026-05-06 02:08 41.01452 -72.46170 13551 ft 334 kts 251°
2026-05-06 02:08 41.00719 -72.49095 12956 ft 335 kts 251°
2026-05-06 02:09 40.99987 -72.52019 12391 ft 335 kts 251°
2026-05-06 02:09 40.99265 -72.54902 12167 ft 325 kts 251°
2026-05-06 02:09 40.98563 -72.57695 12043 ft 313 kts 251°
2026-05-06 02:09 40.97936 -72.60181 12035 ft 299 kts 251°
2026-05-06 02:10 40.97296 -72.62726 12031 ft 285 kts 251°
2026-05-06 02:10 40.96684 -72.65162 12037 ft 277 kts 251°
2026-05-06 02:10 40.96071 -72.67589 12048 ft 277 kts 251°
2026-05-06 02:10 40.95464 -72.70009 12043 ft 277 kts 250°
2026-05-06 02:11 40.94852 -72.72411 12051 ft 274 kts 251°
2026-05-06 02:11 40.94253 -72.74793 12051 ft 271 kts 251°
2026-05-06 02:11 40.93665 -72.77126 11840 ft 272 kts 251°
2026-05-06 02:11 40.92959 -72.79396 11542 ft 263 kts 237°
2026-05-06 02:12 40.91712 -72.81144 11332 ft 262 kts 220°
2026-05-06 02:12 40.90228 -72.82538 11077 ft 261 kts 217°
2026-05-06 02:12 40.88755 -72.83919 10823 ft 259 kts 218°
2026-05-06 02:12 40.87303 -72.85308 10598 ft 257 kts 218°
2026-05-06 02:13 40.85859 -72.86695 10360 ft 256 kts 218°
2026-05-06 02:13 40.84420 -72.88079 10114 ft 255 kts 218°
2026-05-06 02:13 40.82981 -72.89457 9788 ft 257 kts 218°
2026-05-06 02:13 40.81530 -72.90847 9450 ft 258 kts 218°
2026-05-06 02:14 40.80073 -72.92242 9142 ft 259 kts 218°
2026-05-06 02:14 40.78616 -72.93638 8828 ft 260 kts 218°
2026-05-06 02:14 40.77154 -72.95044 8474 ft 260 kts 218°
2026-05-06 02:14 40.75685 -72.96432 8152 ft 259 kts 219°
2026-05-06 02:15 40.74262 -72.97797 8074 ft 247 kts 219°
2026-05-06 02:15 40.73352 -72.98667 8032 ft 240 kts 219°
2026-05-06 02:15 40.72016 -72.99943 8033 ft 237 kts 219°
2026-05-06 02:16 40.70683 -73.01216 8023 ft 236 kts 219°
2026-05-06 02:17 40.68595 -73.15308 6461 ft 220 kts 268°
2026-05-06 02:17 40.68612 -73.17321 6292 ft 220 kts 268°
2026-05-06 02:18 40.68627 -73.19331 6118 ft 219 kts 268°
2026-05-06 02:18 40.68640 -73.21337 5944 ft 219 kts 267°
2026-05-06 02:18 40.68651 -73.23343 5751 ft 219 kts 267°
2026-05-06 02:18 40.68661 -73.25347 5575 ft 219 kts 267°
2026-05-06 02:19 40.68670 -73.27267 5415 ft 218 kts 267°
2026-05-06 02:19 40.68675 -73.29271 5284 ft 220 kts 267°
2026-05-06 02:19 40.68681 -73.31270 5085 ft 222 kts 266°
2026-05-06 02:19 40.68685 -73.33308 4954 ft 223 kts 266°
2026-05-06 02:20 40.69362 -73.37118 4519 ft 208 kts 293°
2026-05-06 02:20 40.70043 -73.38708 4277 ft 191 kts 288°
2026-05-06 02:20 40.70639 -73.40243 4118 ft 189 kts 287°
2026-05-06 02:21 40.71240 -73.41809 3952 ft 194 kts 287°
2026-05-06 02:21 40.71855 -73.43404 3808 ft 196 kts 287°
2026-05-06 02:21 40.72477 -73.45008 3667 ft 196 kts 287°
2026-05-06 02:21 40.73098 -73.46602 3487 ft 195 kts 287°
2026-05-06 02:22 40.73713 -73.48176 3288 ft 192 kts 287°
2026-05-06 02:22 40.74318 -73.49719 3135 ft 187 kts 285°
2026-05-06 02:22 40.74910 -73.51232 3084 ft 186 kts 285°
2026-05-06 02:22 40.75510 -73.52780 3114 ft 192 kts 285°
2026-05-06 02:23 40.76130 -73.54372 3050 ft 197 kts 286°
2026-05-06 02:23 40.76753 -73.55970 3017 ft 196 kts 287°
2026-05-06 02:23 40.77453 -73.57500 3009 ft 193 kts 290°
2026-05-06 02:23 40.77887 -73.58514 3005 ft 190 kts 284°
2026-05-06 02:24 40.78382 -73.60115 2995 ft 183 kts 275°
2026-05-06 02:24 40.78450 -73.61658 2992 ft 159 kts 255°
2026-05-06 02:24 40.78170 -73.63493 2982 ft 149 kts 241°
2026-05-06 02:24 40.77501 -73.64488 3024 ft 144 kts 221°
2026-05-06 02:25 40.76749 -73.65369 3129 ft 150 kts 223°
2026-05-06 02:25 40.76203 -73.65974 3008 ft 153 kts 221°
2026-05-06 02:25 40.75382 -73.66819 2834 ft 139 kts 218°
2026-05-06 02:25 40.74583 -73.67436 2659 ft 129 kts 213°
2026-05-06 02:26 40.73817 -73.68006 2377 ft 124 kts 213°
2026-05-06 02:26 40.73107 -73.68557 2191 ft 114 kts 216°
2026-05-06 02:26 40.72889 -73.68751 2139 ft 110 kts 217°
2026-05-06 02:27 40.72677 -73.68944 2068 ft 109 kts 215°
2026-05-06 02:27 40.70426 -73.70800 1533 ft 111 kts 212°
2026-05-06 02:27 40.69985 -73.71142 1425 ft 108 kts 212°
2026-05-06 02:28 40.69357 -73.71659 1206 ft 104 kts 214°
2026-05-06 02:28 40.67842 -73.72898 785 ft 123 kts 209°
2026-05-06 02:28 40.67092 -73.73506 687 ft 128 kts 209°
2026-05-06 02:28 40.66308 -73.74107 495 ft 132 kts 207°
2026-05-06 02:29 40.65515 -73.74728 318 ft 133 kts 208°
2026-05-06 02:29 40.64724 -73.75327 110 ft 129 kts 209°
2026-05-06 02:29 40.63994 -73.75910 28 ft 112 kts 208°
2026-05-06 02:29 40.63411 -73.76356 28 ft 80 kts 210°
2026-05-06 02:30 40.63078 -73.76631 25 ft 39 kts 219°
2026-05-06 02:30 40.62952 -73.76838 26 ft 21 kts 240°
2026-05-06 02:30 40.62953 -73.77018 24 ft 21 kts 297°
2026-05-06 02:30 40.63026 -73.77185 22 ft 20 kts 302°
2026-05-06 02:31 40.63098 -73.77343 23 ft 20 kts 301°
2026-05-06 02:31 40.63167 -73.77499 25 ft 19 kts 301°
2026-05-06 02:31 40.63236 -73.77648 28 ft 19 kts 301°
2026-05-06 02:31 40.63301 -73.77793 29 ft 16 kts 303°
2026-05-06 02:32 40.63367 -73.77820 23 ft 10 kts 25°
2026-05-06 02:32 40.63419 -73.77775 25 ft 9 kts 32°
2026-05-06 02:32 40.63486 -73.77724 22 ft 15 kts 30°
2026-05-06 02:32 40.63606 -73.77630 23 ft 23 kts 30°
2026-05-06 02:33 40.63735 -73.77529 22 ft 20 kts 30°
2026-05-06 02:33 40.63811 -73.77469 24 ft 19 kts 31°
2026-05-06 02:34 40.64191 -73.77173 24 ft 19 kts 31°
2026-05-06 02:34 40.64306 -73.77082 24 ft 20 kts 31°
2026-05-06 02:34 40.64439 -73.76998 21 ft 22 kts 14°
2026-05-06 02:34 40.64586 -73.76985 23 ft 19 kts
2026-05-06 02:35 40.64705 -73.77017 26 ft 16 kts 333°
2026-05-06 02:35 40.64787 -73.77117 24 ft 16 kts 303°
2026-05-06 02:35 40.64844 -73.77247 23 ft 16 kts 302°
2026-05-06 02:35 40.64903 -73.77383 26 ft 18 kts 300°
2026-05-06 02:36 40.64969 -73.77524 22 ft 18 kts 301°
2026-05-06 02:36 40.65033 -73.77666 25 ft 18 kts 301°
2026-05-06 02:36 40.65100 -73.77814 23 ft 20 kts 301°
2026-05-06 02:36 40.65179 -73.77987 23 ft 21 kts 300°
2026-05-06 02:37 40.65255 -73.78157 25 ft 22 kts 300°
2026-05-06 02:37 40.65330 -73.78320 24 ft 18 kts 302°
2026-05-06 02:37 40.65354 -73.78459 21 ft 16 kts 252°
2026-05-06 02:37 40.65310 -73.78589 22 ft 16 kts 242°
2026-05-06 02:38 40.65253 -73.78721 25 ft 20 kts 242°
2026-05-06 02:38 40.65218 -73.78858 21 ft 11 kts 255°
2026-05-06 02:38 40.65164 -73.78907 21 ft 10 kts 186°
2026-05-06 02:38 40.65097 -73.78914 21 ft 10 kts 184°
2026-05-06 02:39 40.65036 -73.78951 23 ft 10 kts 225°
2026-05-06 02:39 40.64996 -73.79032 23 ft 11 kts 240°
2026-05-06 02:39 40.64959 -73.79116 22 ft 11 kts 241°
2026-05-06 02:39 40.64923 -73.79200 22 ft 11 kts 240°
2026-05-06 02:40 40.64887 -73.79284 24 ft 11 kts 239°
2026-05-06 02:40 40.64851 -73.79369 22 ft 11 kts 241°
2026-05-06 02:40 40.64815 -73.79453 22 ft 11 kts 240°
2026-05-06 02:40 40.64781 -73.79513 23 ft 7 kts 209°
2026-05-06 02:41 40.64734 -73.79511 22 ft 6 kts 164°
2026-05-06 02:41 40.64722 -73.79506 23 ft 1 kts 161°
2026-05-06 02:41 40.64712 -73.79502 22 ft 2 kts 163°
2026-05-06 02:41 40.64709 -73.79501 22 ft 0 kts 162°